"Pseudo-MPEC" for SWC0429
Created 2023 Nov 25 16:22:12 UT using Find_Orb
Click here for an explanation of pseudo-MPECs
Astrometry: SWC0429*KB2023 11 07f1rDa,O*[D\MEp
Astrometryy-5bV7kLV%3`bQ'M#K4dTsER/;%5
Y05 SWC0429 KB2023 11 08Z$_YetuA2fGh
redacted;EZ(ae/4C4#-hv
click,t_GyN'
hereX3
Y05 SWC0429 KB2023 11 08:Cb5?tUfUGDf.Q/BTe*_
foriJ9=+q*n
explanationl53@E6!5pA
Y05 Station data: (Y05) SONEAR Wykrota-CEAMIG, Serra da Piedade (S19.824251 W43.690000) Brazil. Observer C. Jacques. 0.45-m f/2.9 reflector + CMO. Orbital elements: SWC0429 Perihelion 2024 May 13.21482 +/- 271 TT = 5:09:20 (JD 2460443.71482) Epoch 2023 Nov 8.0 TT = JDT 2460256.5 Earth MOID: 0.1331 Me: 0.0079 M 284.00872936 +/- 100 (J2000 ecliptic) AutoNEOCP n 0.40590414 +/- 0.408 Peri. 155.11642 +/- 60 a 1.80656554 +/- 1.21 Node 17.16164 +/- 51 e 0.8050080 +/- 0.215 Incl. 12.42073 +/- 60 P 2.43/886.89d H 17.60 G 0.15 U 12.2 SR q 0.35226570 +/- 1.12 Q 3.26086537 +/- 27.5 From 3 observations 2023 Nov. 7-8 (39.2 min); mean residual 0".08
Residuals in arcseconds: 231107 Y05 .03+ .08+ 231108 Y05 .06- .16- 231108 Y05 .03+ .08+ Ephemerides (geocentric): Date (UTC) HH RA Dec delta r elong mag " sig PA ---- -------- ------------ ------------ ------ ------ ----- --- -------- 2023 11 25 16 23 39 10.252 -02 10 18.17 1.7937 2.3439 111.6 21.8 5845 105 2023 11 25 17 23 39 08.963 -02 10 20.02 1.7940 2.3436 111.5 21.8 5862 105 2023 11 25 18 23 39 07.678 -02 10 21.84 1.7943 2.3433 111.5 21.8 5879 105 2023 11 25 19 23 39 06.397 -02 10 23.65 1.7946 2.3430 111.4 21.8 5896 105 2023 11 25 20 23 39 05.119 -02 10 25.43 1.7950 2.3427 111.4 21.8 5913 105 2023 11 25 21 23 39 03.845 -02 10 27.20 1.7953 2.3424 111.3 21.8 5930 105 2023 11 25 22 23 39 02.574 -02 10 28.94 1.7956 2.3421 111.3 21.8 5947 105 2023 11 25 23 23 39 01.307 -02 10 30.66 1.7959 2.3418 111.2 21.8 5964 105 2023 11 26 00 23 39 00.044 -02 10 32.36 1.7962 2.3414 111.2 21.8 5981 105 2023 11 26 01 23 38 58.784 -02 10 34.04 1.7965 2.3411 111.1 21.8 5998 105 2023 11 26 02 23 38 57.528 -02 10 35.70 1.7968 2.3408 111.1 21.8 6015 105 2023 11 26 03 23 38 56.275 -02 10 37.34 1.7971 2.3405 111.1 21.8 6032 105 2023 11 26 04 23 38 55.026 -02 10 38.95 1.7974 2.3402 111.0 21.8 6049 105 2023 11 26 05 23 38 53.781 -02 10 40.55 1.7977 2.3399 111.0 21.8 6066 105 2023 11 26 06 23 38 52.539 -02 10 42.12 1.7980 2.3396 110.9 21.8 6083 105 2023 11 26 07 23 38 51.301 -02 10 43.67 1.7983 2.3393 110.9 21.8 6100 105 2023 11 26 08 23 38 50.066 -02 10 45.20 1.7986 2.3390 110.8 21.8 6117 105 2023 11 26 09 23 38 48.835 -02 10 46.71 1.7989 2.3387 110.8 21.8 6134 105 2023 11 26 10 23 38 47.608 -02 10 48.20 1.7992 2.3384 110.7 21.8 6151 105 2023 11 26 11 23 38 46.384 -02 10 49.67 1.7995 2.3381 110.7 21.8 6168 105 2023 11 26 12 23 38 45.164 -02 10 51.11 1.7998 2.3377 110.6 21.8 6185 105 2023 11 26 13 23 38 43.948 -02 10 52.54 1.8001 2.3374 110.6 21.8 6202 105 2023 11 26 14 23 38 42.735 -02 10 53.94 1.8004 2.3371 110.5 21.8 6220 105 2023 11 26 15 23 38 41.526 -02 10 55.33 1.8007 2.3368 110.5 21.8 6237 105 2023 11 26 16 23 38 40.320 -02 10 56.69 1.8010 2.3365 110.4 21.8 6254 105 2023 11 26 17 23 38 39.118 -02 10 58.03 1.8013 2.3362 110.4 21.8 6271 105 2023 11 26 18 23 38 37.919 -02 10 59.35 1.8016 2.3359 110.3 21.8 6288 105 2023 11 26 19 23 38 36.724 -02 11 00.65 1.8019 2.3356 110.3 21.8 6306 105 2023 11 26 20 23 38 35.533 -02 11 01.93 1.8022 2.3353 110.3 21.8 6323 105 2023 11 26 21 23 38 34.345 -02 11 03.18 1.8025 2.3350 110.2 21.8 6340 105 2023 11 26 22 23 38 33.161 -02 11 04.42 1.8028 2.3347 110.2 21.8 6357 105 2023 11 26 23 23 38 31.980 -02 11 05.64 1.8032 2.3343 110.1 21.8 6374 105 2023 11 27 00 23 38 30.803 -02 11 06.83 1.8035 2.3340 110.1 21.8 6392 105 2023 11 27 01 23 38 29.630 -02 11 08.00 1.8038 2.3337 110.0 21.8 6409 105 2023 11 27 02 23 38 28.460 -02 11 09.15 1.8041 2.3334 110.0 21.8 6426 105 2023 11 27 03 23 38 27.294 -02 11 10.28 1.8044 2.3331 109.9 21.8 6444 105 2023 11 27 04 23 38 26.131 -02 11 11.39 1.8047 2.3328 109.9 21.8 6461 105 2023 11 27 05 23 38 24.972 -02 11 12.48 1.8050 2.3325 109.8 21.8 6478 105 2023 11 27 06 23 38 23.817 -02 11 13.55 1.8053 2.3322 109.8 21.8 6495 105 2023 11 27 07 23 38 22.665 -02 11 14.60 1.8056 2.3319 109.7 21.8 6513 105 2023 11 27 08 23 38 21.517 -02 11 15.62 1.8059 2.3316 109.7 21.8 6530 105 2023 11 27 09 23 38 20.372 -02 11 16.63 1.8062 2.3312 109.6 21.8 6548 105 2023 11 27 10 23 38 19.231 -02 11 17.61 1.8065 2.3309 109.6 21.8 6565 105 2023 11 27 11 23 38 18.093 -02 11 18.57 1.8068 2.3306 109.6 21.8 6582 105 2023 11 27 12 23 38 16.959 -02 11 19.52 1.8071 2.3303 109.5 21.8 6600 105 2023 11 27 13 23 38 15.829 -02 11 20.44 1.8074 2.3300 109.5 21.8 6617 105 2023 11 27 14 23 38 14.702 -02 11 21.34 1.8077 2.3297 109.4 21.8 6634 105 2023 11 27 15 23 38 13.579 -02 11 22.22 1.8080 2.3294 109.4 21.8 6652 105